Simultaneous Nadir Overpasses (SNOs) Predictions

Prediction of SNOs between GOES-16 and NOAA-19 Satellite Orbit:

Table of predicted SNOs for the next 14.0 days since TLE Epoch: 4/25/2020
Index Date Time (GOES-16) GOES-16 Lat,Lon NOAA-19 Lat,Lon Distance(km) Time Diff (sec)
1 04/25/2020 23:00:17 -0.02, -75.16 -0.70, -78.10 335.92 80
2 04/26/2020 22:48:36 -0.02, -75.16 -0.06, -75.25 10.53 80
3 04/27/2020 22:36:57 -0.01, -75.17 0.64, -72.41 315.53 80
4 04/30/2020 10:57:57 0.01, -75.19 0.53, -77.37 248.67 80
5 05/01/2020 10:43:36 0.01, -75.20 -0.13, -74.51 77.54 80
6 05/02/2020 10:31:56 0.01, -75.20 -0.79, -71.66 403.84 80
7 05/03/2020 23:04:40 -0.01, -75.20 -1.01, -79.50 490.22 80
8 05/04/2020 22:53:00 -0.01, -75.21 -0.37, -76.64 163.59 80
9 05/05/2020 22:44:00 -0.01, -75.23 0.34, -73.80 163.23 80
10 05/06/2020 22:32:20 -0.01, -75.24 0.98, -70.95 490.09 80
11 05/08/2020 11:04:58 0.01, -75.28 0.84, -78.75 397.25 80




NCC Satellite Simultaneous Nadir Overpasses (SNOs) Prediction Service
